| time (UTC) | temp C | wind direction | speed KPH | gust KPH | rain 1hr cm | rain 24hr cm | rain mn cm | humidity % | barometer mb |
| 20260510075033 | 14 | 132 | 9.7 | 0.0 | 0.00 | 0.00 | 0.00 | 82 | 1011.4 |
| 20260510074603 | 13 | 133 | 8.0 | 0.0 | 0.00 | 0.00 | 0.00 | 82 | 1009.6 |
| 20260510074539 | 14 | 131 | 8.0 | 0.0 | 0.00 | 0.00 | 0.00 | 82 | 1011.4 |
| 20260510074042 | 14 | 150 | 8.0 | 0.0 | 0.00 | 0.00 | 0.00 | 82 | 1011.4 |
| 20260510073545 | 14 | 131 | 8.0 | 0.0 | 0.00 | 0.00 | 0.00 | 82 | 1011.4 |
| 20260510073038 | 14 | 126 | 9.7 | 0.0 | 0.00 | 0.00 | 0.00 | 81 | 1011.5 |
| 20260510073003 | 13 | 140 | 9.7 | 0.0 | 0.00 | 0.00 | 0.00 | 81 | 1009.6 |
| 20260510072535 | 14 | 126 | 9.7 | 0.0 | 0.00 | 0.00 | 0.00 | 82 | 1011.4 |
| 20260510072031 | 14 | 139 | 9.7 | 0.0 | 0.00 | 0.00 | 0.00 | 82 | 1011.5 |
| 20260510071649 | 13 | 118 | 8.0 | 0.0 | 0.00 | 0.00 | 0.00 | 83 | 1009.6 |
| 20260510071546 | 14 | 128 | 8.0 | 0.0 | 0.00 | 0.00 | 0.00 | 82 | 1011.5 |
| 20260510071018 | 14 | 126 | 8.0 | 0.0 | 0.00 | 0.00 | 0.00 | 83 | 1011.6 |
| 20260510070544 | 13 | 120 | 8.0 | 0.0 | 0.00 | 0.00 | 0.00 | 82 | 1011.6 |
| 20260510070115 | 13 | 120 | 6.4 | 0.0 | 0.00 | 0.00 | 0.00 | 83 | 1009.7 |
| 20260510070040 | 13 | 132 | 6.4 | 0.0 | 0.00 | 0.00 | 0.00 | 83 | 1011.6 |
| 20260510065539 | 13 | 103 | 6.4 | 0.0 | 0.00 | 0.00 | 0.00 | 84 | 1011.6 |
| 20260510065040 | 13 | 117 | 9.7 | 0.0 | 0.00 | 0.00 | 0.00 | 83 | 1011.5 |
| 20260510064606 | 13 | 120 | 9.7 | 0.0 | 0.00 | 0.00 | 0.00 | 83 | 1009.7 |
| 20260510064534 | 13 | 129 | 9.7 | 0.0 | 0.00 | 0.00 | 0.00 | 83 | 1011.6 |
| 20260510064041 | 13 | 132 | 8.0 | 0.0 | 0.00 | 0.00 | 0.00 | 82 | 1011.6 |
| 20260510063534 | 13 | 120 | 8.0 | 0.0 | 0.00 | 0.00 | 0.00 | 83 | 1011.6 |
| 20260510063105 | 13 | 115 | 4.8 | 0.0 | 0.00 | 0.00 | 0.00 | 83 | 1009.8 |
| 20260510063033 | 13 | 137 | 4.8 | 0.0 | 0.00 | 0.00 | 0.00 | 83 | 1011.6 |
| 20260510062539 | 13 | 149 | 3.2 | 0.0 | 0.00 | 0.00 | 0.00 | 83 | 1011.6 |
| 20260510062056 | 13 | 138 | 3.2 | 0.0 | 0.00 | 0.00 | 0.00 | 84 | 1011.5 |
| 20260510061611 | 12 | 138 | 3.2 | 0.0 | 0.00 | 0.00 | 0.00 | 85 | 1009.6 |
| 20260510061536 | 13 | 138 | 3.2 | 0.0 | 0.00 | 0.00 | 0.00 | 85 | 1011.5 |
| 20260510061051 | 12 | 120 | 4.8 | 0.0 | 0.00 | 0.00 | 0.00 | 84 | 1011.5 |
| 20260510060529 | 12 | 126 | 8.0 | 0.0 | 0.00 | 0.00 | 0.00 | 84 | 1011.5 |
| 20260510060057 | 12 | 132 | 8.0 | 0.0 | 0.00 | 0.00 | 0.00 | 84 | 1011.4 |
| 20260510055534 | 12 | 126 | 8.0 | 0.0 | 0.00 | 0.00 | 0.00 | 84 | 1011.4 |
| 20260510055034 | 12 | 99 | 8.0 | 0.0 | 0.00 | 0.00 | 0.00 | 85 | 1011.4 |
| 20260510054543 | 12 | 97 | 8.0 | 0.0 | 0.00 | 0.00 | 0.00 | 86 | 1011.4 |
| 20260510054529 | 11 | 111 | 8.0 | 0.0 | 0.00 | 0.00 | 0.00 | 86 | 1009.6 |
| 20260510054023 | 12 | 130 | 6.4 | 0.0 | 0.00 | 0.00 | 0.00 | 86 | 1011.4 |
| 20260510053556 | 11 | 138 | 4.8 | 0.0 | 0.00 | 0.00 | 0.00 | 87 | 1011.5 |
| 20260510053107 | 11 | 159 | 4.8 | 0.0 | 0.00 | 0.00 | 0.00 | 86 | 1009.6 |
| 20260510053041 | 11 | 140 | 4.8 | 0.0 | 0.00 | 0.00 | 0.00 | 86 | 1011.4 |
| 20260510052542 | 11 | 90 | 4.8 | 0.0 | 0.00 | 0.00 | 0.00 | 86 | 1011.4 |
| 20260510052034 | 11 | 84 | 4.8 | 0.0 | 0.00 | 0.00 | 0.00 | 87 | 1011.4 |
| 20260510051611 | 11 | 84 | 6.4 | 0.0 | 0.00 | 0.00 | 0.00 | 87 | 1009.6 |
| 20260510051534 | 11 | 84 | 6.4 | 0.0 | 0.00 | 0.00 | 0.00 | 87 | 1011.4 |
| 20260510051020 | 11 | 97 | 8.0 | 0.0 | 0.00 | 0.00 | 0.00 | 87 | 1011.4 |
| 20260510050539 | 11 | 100 | 8.0 | 0.0 | 0.00 | 0.00 | 0.00 | 87 | 1011.4 |
| 20260510050118 | 10 | 101 | 8.0 | 0.0 | 0.00 | 0.00 | 0.00 | 87 | 1009.4 |
| 20260510050046 | 11 | 99 | 8.0 | 0.0 | 0.00 | 0.00 | 0.00 | 87 | 1011.3 |
| 20260510045544 | 11 | 100 | 8.0 | 0.0 | 0.00 | 0.00 | 0.00 | 87 | 1011.2 |
| 20260510045029 | 10 | 93 | 6.4 | 0.0 | 0.00 | 0.00 | 0.00 | 87 | 1011.2 |
| 20260510044555 | 10 | 97 | 6.4 | 0.0 | 0.00 | 0.00 | 0.00 | 87 | 1011.3 |
| 20260510044045 | 10 | 97 | 6.4 | 0.0 | 0.00 | 0.00 | 0.00 | 87 | 1011.3 |
| 20260510043600 | 10 | 85 | 6.4 | 0.0 | 0.00 | 0.00 | 0.00 | 87 | 1011.3 |
| 20260510043052 | 10 | 61 | 4.8 | 0.0 | 0.00 | 0.00 | 0.00 | 87 | 1009.4 |
| 20260510043034 | 10 | 61 | 4.8 | 0.0 | 0.00 | 0.00 | 0.00 | 87 | 1011.3 |
| 20260510042528 | 10 | 61 | 4.8 | 0.0 | 0.00 | 0.00 | 0.00 | 87 | 1011.3 |
| 20260510042049 | 10 | 61 | 4.8 | 0.0 | 0.00 | 0.00 | 0.00 | 87 | 1011.3 |
| 20260510041542 | 10 | 72 | 4.8 | 0.0 | 0.00 | 0.00 | 0.00 | 87 | 1009.4 |
| 20260510041519 | 10 | 72 | 4.8 | 0.0 | 0.00 | 0.00 | 0.00 | 87 | 1011.2 |
| 20260510041045 | 10 | 80 | 6.4 | 0.0 | 0.00 | 0.00 | 0.00 | 87 | 1011.3 |
| 20260510040555 | 10 | 82 | 6.4 | 0.0 | 0.00 | 0.00 | 0.00 | 87 | 1011.3 |
| 20260510040118 | 10 | 56 | 4.8 | 0.0 | 0.00 | 0.00 | 0.00 | 86 | 1009.4 |
| 20260510040031 | 10 | 56 | 4.8 | 0.0 | 0.00 | 0.00 | 0.00 | 86 | 1011.3 |
| 20260510035531 | 10 | 56 | 4.8 | 0.0 | 0.00 | 0.00 | 0.00 | 86 | 1011.3 |
| 20260510035039 | 10 | 56 | 6.4 | 0.0 | 0.00 | 0.00 | 0.00 | 86 | 1011.3 |
| 20260510034538 | 11 | 56 | 9.7 | 0.0 | 0.00 | 0.00 | 0.00 | 86 | 1011.4 |
| 20260510034503 | 10 | 57 | 8.0 | 0.0 | 0.00 | 0.00 | 0.00 | 86 | 1009.6 |
| 20260510034033 | 11 | 65 | 6.4 | 0.0 | 0.00 | 0.00 | 0.00 | 86 | 1011.4 |
| 20260510033529 | 11 | 56 | 4.8 | 0.0 | 0.00 | 0.00 | 0.00 | 86 | 1011.4 |
| 20260510033109 | 10 | 61 | 4.8 | 0.0 | 0.00 | 0.00 | 0.00 | 86 | 1009.5 |
| 20260510033033 | 11 | 61 | 4.8 | 0.0 | 0.00 | 0.00 | 0.00 | 86 | 1011.4 |
| 20260510032539 | 11 | 55 | 3.2 | 0.0 | 0.00 | 0.00 | 0.00 | 86 | 1011.4 |
| 20260510032041 | 11 | 47 | 1.6 | 0.0 | 0.00 | 0.00 | 0.00 | 86 | 1011.4 |
| 20260510031553 | 10 | 59 | 6.4 | 0.0 | 0.00 | 0.00 | 0.00 | 86 | 1009.6 |
| 20260510031535 | 11 | 59 | 6.4 | 0.0 | 0.00 | 0.00 | 0.00 | 86 | 1011.5 |
| 20260510031042 | 11 | 58 | 9.7 | 0.0 | 0.00 | 0.00 | 0.00 | 86 | 1011.6 |
| 20260510030535 | 11 | 86 | 8.0 | 0.0 | 0.00 | 0.00 | 0.00 | 86 | 1011.6 |
| 20260510030041 | 11 | 59 | 6.4 | 0.0 | 0.00 | 0.00 | 0.00 | 85 | 1011.5 |
| 20260510030028 | 11 | 59 | 6.4 | 0.0 | 0.00 | 0.00 | 0.00 | 85 | 1009.7 |
| 20260510025550 | 11 | 61 | 4.8 | 0.0 | 0.00 | 0.00 | 0.00 | 85 | 1011.5 |
| 20260510025057 | 11 | 59 | 3.2 | 0.0 | 0.00 | 0.00 | 0.00 | 85 | 1011.5 |
| 20260510024539 | 11 | 61 | 1.6 | 0.0 | 0.00 | 0.00 | 0.00 | 85 | 1011.4 |
| 20260510024501 | 11 | 61 | 1.6 | 0.0 | 0.00 | 0.00 | 0.00 | 85 | 1009.5 |
| 20260510024046 | 11 | 61 | 3.2 | 0.0 | 0.00 | 0.00 | 0.00 | 85 | 1011.4 |
| 20260510023540 | 11 | 61 | 6.4 | 0.0 | 0.00 | 0.00 | 0.00 | 85 | 1011.5 |
| 20260510023041 | 11 | 60 | 6.4 | 0.0 | 0.00 | 0.00 | 0.00 | 85 | 1011.5 |
| 20260510023014 | 11 | 59 | 6.4 | 0.0 | 0.00 | 0.00 | 0.00 | 85 | 1009.7 |
| 20260510022538 | 11 | 58 | 8.0 | 0.0 | 0.00 | 0.00 | 0.00 | 85 | 1011.6 |
| 20260510022034 | 11 | 63 | 8.0 | 0.0 | 0.00 | 0.00 | 0.00 | 84 | 1011.6 |
| 20260510021700 | 11 | 68 | 8.0 | 0.0 | 0.00 | 0.00 | 0.00 | 84 | 1009.7 |
| 20260510021532 | 11 | 59 | 8.0 | 0.0 | 0.00 | 0.00 | 0.00 | 84 | 1011.5 |
| 20260510021052 | 11 | 72 | 9.7 | 0.0 | 0.00 | 0.00 | 0.00 | 83 | 1011.6 |
| 20260510020524 | 11 | 70 | 6.4 | 0.0 | 0.00 | 0.00 | 0.00 | 83 | 1011.6 |
| 20260510015546 | 11 | 82 | 4.8 | 0.0 | 0.00 | 0.00 | 0.00 | 83 | 1011.6 |
| 20260510015101 | 12 | 86 | 3.2 | 0.0 | 0.00 | 0.00 | 0.00 | 82 | 1011.7 |
| 20260510014620 | 11 | 55 | 1.6 | 0.0 | 0.00 | 0.00 | 0.00 | 82 | 1009.8 |
| 20260510014538 | 12 | 70 | 3.2 | 0.0 | 0.00 | 0.00 | 0.00 | 82 | 1011.6 |
| 20260510014031 | 12 | 70 | 4.8 | 0.0 | 0.00 | 0.00 | 0.00 | 82 | 1011.7 |
| 20260510013538 | 12 | 67 | 6.4 | 0.0 | 0.00 | 0.00 | 0.00 | 82 | 1011.7 |
| 20260510013033 | 12 | 62 | 6.4 | 0.0 | 0.00 | 0.00 | 0.00 | 82 | 1011.7 |
| 20260510012529 | 12 | 64 | 6.4 | 0.0 | 0.00 | 0.00 | 0.00 | 81 | 1011.7 |
| 20260510012039 | 12 | 59 | 6.4 | 0.0 | 0.00 | 0.00 | 0.00 | 82 | 1011.6 |
| 20260510011605 | 12 | 56 | 8.0 | 0.0 | 0.00 | 0.00 | 0.00 | 82 | 1011.7 |
| 20260510011517 | 12 | 56 | 8.0 | 0.0 | 0.00 | 0.00 | 0.00 | 82 | 1009.9 |
| 20260510011029 | 12 | 68 | 6.4 | 0.0 | 0.00 | 0.00 | 0.00 | 81 | 1011.7 |
| 20260510010600 | 12 | 61 | 6.4 | 0.0 | 0.00 | 0.00 | 0.00 | 82 | 1011.8 |
| 20260510010127 | 12 | 72 | 8.0 | 0.0 | 0.00 | 0.00 | 0.00 | 82 | 1009.9 |
| 20260510010103 | 12 | 72 | 8.0 | 0.0 | 0.00 | 0.00 | 0.00 | 82 | 1011.8 |
| 20260510005537 | 12 | 84 | 8.0 | 0.0 | 0.00 | 0.00 | 0.00 | 82 | 1011.9 |
| 20260510005034 | 12 | 109 | 8.0 | 0.0 | 0.00 | 0.00 | 0.00 | 82 | 1011.9 |
| 20260510004607 | 12 | 90 | 6.4 | 0.0 | 0.00 | 0.00 | 0.00 | 82 | 1010.0 |
| 20260510004536 | 12 | 81 | 4.8 | 0.0 | 0.00 | 0.00 | 0.00 | 82 | 1011.8 |
| 20260510004040 | 12 | 57 | 1.6 | 0.0 | 0.00 | 0.00 | 0.00 | 83 | 1011.8 |
| 20260510003529 | 12 | 55 | 0.0 | 0.0 | 0.00 | 0.00 | 0.00 | 82 | 1011.8 |
| 20260510003054 | 12 | 55 | 1.6 | 0.0 | 0.00 | 0.00 | 0.00 | 82 | 1010.0 |
| 20260510003035 | 12 | 55 | 1.6 | 0.0 | 0.00 | 0.00 | 0.00 | 82 | 1011.9 |
| 20260510002554 | 12 | 55 | 3.2 | 0.0 | 0.00 | 0.00 | 0.00 | 82 | 1012.0 |
| 20260510002051 | 12 | 57 | 3.2 | 0.0 | 0.00 | 0.00 | 0.00 | 82 | 1012.1 |
| 20260510001549 | 12 | 59 | 1.6 | 0.0 | 0.00 | 0.00 | 0.00 | 83 | 1012.2 |
| 20260510001510 | 12 | 49 | 1.6 | 0.0 | 0.00 | 0.00 | 0.00 | 83 | 1010.4 |
| 20260510001030 | 12 | 56 | 1.6 | 0.0 | 0.00 | 0.00 | 0.00 | 83 | 1012.2 |
| 20260510000535 | 12 | 47 | 1.6 | 0.0 | 0.00 | 0.00 | 0.00 | 83 | 1012.3 |
| 20260510000117 | 12 | 54 | 4.8 | 0.0 | 0.00 | 0.00 | 0.00 | 84 | 1010.5 |
| 20260510000032 | 12 | 61 | 4.8 | 0.0 | 0.00 | 0.00 | 0.00 | 84 | 1012.4 |
| 20260509235556 | 12 | 61 | 8.0 | 0.0 | 0.00 | 0.00 | 0.00 | 84 | 1012.5 |
| 20260509235036 | 12 | 57 | 8.0 | 0.0 | 0.00 | 0.00 | 0.00 | 84 | 1012.5 |
| 20260509234605 | 11 | 57 | 4.8 | 0.0 | 0.00 | 0.00 | 0.00 | 84 | 1010.7 |
| 20260509234546 | 12 | 60 | 4.8 | 0.0 | 0.00 | 0.00 | 0.00 | 84 | 1012.5 |
| 20260509234021 | 12 | 60 | 3.2 | 0.0 | 0.00 | 0.00 | 0.00 | 84 | 1012.5 |
| 20260509233539 | 12 | 53 | 6.4 | 0.0 | 0.00 | 0.00 | 0.00 | 84 | 1012.6 |
| 20260509233116 | 11 | 55 | 6.4 | 0.0 | 0.00 | 0.00 | 0.00 | 83 | 1010.8 |
| 20260509233037 | 12 | 55 | 6.4 | 0.0 | 0.00 | 0.00 | 0.00 | 84 | 1012.6 |
| 20260509232534 | 12 | 59 | 4.8 | 0.0 | 0.00 | 0.00 | 0.00 | 83 | 1012.7 |
| 20260509232028 | 12 | 57 | 4.8 | 0.0 | 0.00 | 0.00 | 0.00 | 83 | 1012.7 |
| 20260509231633 | 11 | 70 | 4.8 | 0.0 | 0.00 | 0.00 | 0.00 | 82 | 1010.9 |
| 20260509231555 | 12 | 70 | 4.8 | 0.0 | 0.00 | 0.00 | 0.00 | 82 | 1012.7 |
| 20260509231032 | 12 | 70 | 6.4 | 0.0 | 0.00 | 0.00 | 0.00 | 82 | 1012.7 |
| 20260509230529 | 12 | 70 | 6.4 | 0.0 | 0.00 | 0.00 | 0.00 | 81 | 1012.8 |
| 20260509230114 | 12 | 70 | 4.8 | 0.0 | 0.00 | 0.00 | 0.00 | 81 | 1010.9 |
| 20260509230023 | 12 | 70 | 4.8 | 0.0 | 0.00 | 0.00 | 0.00 | 81 | 1012.8 |
| 20260509225549 | 12 | 70 | 6.4 | 0.0 | 0.00 | 0.00 | 0.00 | 81 | 1012.7 |
| 20260509225031 | 12 | 75 | 6.4 | 0.0 | 0.00 | 0.00 | 0.00 | 80 | 1012.8 |
| 20260509224523 | 12 | 91 | 4.8 | 0.0 | 0.00 | 0.00 | 0.00 | 80 | 1012.7 |
| 20260509224510 | 12 | 91 | 4.8 | 0.0 | 0.00 | 0.00 | 0.00 | 80 | 1010.9 |
| 20260509224046 | 12 | 68 | 1.6 | 0.0 | 0.00 | 0.00 | 0.00 | 80 | 1012.7 |
| 20260509223544 | 12 | 61 | 1.6 | 0.0 | 0.00 | 0.00 | 0.00 | 80 | 1012.7 |
| 20260509223109 | 12 | 23 | 1.6 | 0.0 | 0.00 | 0.00 | 0.00 | 80 | 1010.9 |
| 20260509223048 | 12 | 23 | 1.6 | 0.0 | 0.00 | 0.00 | 0.00 | 80 | 1012.8 |
| 20260509222533 | 12 | 23 | 1.6 | 0.0 | 0.00 | 0.00 | 0.00 | 80 | 1012.7 |
| 20260509222036 | 13 | 57 | 3.2 | 0.0 | 0.00 | 0.00 | 0.00 | 80 | 1012.7 |
| 20260509221621 | 12 | 47 | 3.2 | 0.0 | 0.00 | 0.00 | 0.00 | 80 | 1010.8 |
| 20260509221539 | 13 | 55 | 3.2 | 0.0 | 0.00 | 0.00 | 0.00 | 79 | 1012.6 |
| 20260509221034 | 13 | 30 | 4.8 | 0.0 | 0.00 | 0.00 | 0.00 | 79 | 1012.6 |
| 20260509220536 | 13 | 61 | 3.2 | 0.0 | 0.00 | 0.00 | 0.00 | 79 | 1012.6 |
| 20260509220108 | 13 | 55 | 1.6 | 0.0 | 0.00 | 0.00 | 0.00 | 78 | 1012.6 |
| 20260509220026 | 13 | 53 | 1.6 | 0.0 | 0.00 | 0.00 | 0.00 | 78 | 1010.7 |
| 20260509215545 | 13 | 44 | 3.2 | 0.0 | 0.00 | 0.00 | 0.00 | 78 | 1012.5 |
| 20260509215056 | 13 | 50 | 3.2 | 0.0 | 0.00 | 0.00 | 0.00 | 78 | 1012.5 |
| 20260509214537 | 13 | 50 | 4.8 | 0.0 | 0.00 | 0.00 | 0.00 | 77 | 1012.6 |
| 20260509214105 | 13 | 352 | 4.8 | 0.0 | 0.00 | 0.00 | 0.00 | 76 | 1012.6 |
| 20260509213534 | 13 | 347 | 3.2 | 0.0 | 0.00 | 0.00 | 0.00 | 76 | 1012.7 |
| 20260509213145 | 13 | 357 | 3.2 | 0.0 | 0.00 | 0.00 | 0.00 | 75 | 1011.0 |
| 20260509213042 | 13 | 357 | 1.6 | 0.0 | 0.00 | 0.00 | 0.00 | 75 | 1012.8 |
| 20260509212548 | 13 | 357 | 1.6 | 0.0 | 0.00 | 0.00 | 0.00 | 75 | 1012.9 |
| 20260509212025 | 13 | 357 | 1.6 | 0.0 | 0.00 | 0.00 | 0.00 | 75 | 1013.0 |
| 20260509211608 | 13 | 357 | 1.6 | 0.0 | 0.00 | 0.00 | 0.00 | 74 | 1011.1 |
| 20260509211535 | 14 | 357 | 1.6 | 0.0 | 0.00 | 0.00 | 0.00 | 74 | 1013.0 |
| 20260509211033 | 14 | 357 | 1.6 | 0.0 | 0.00 | 0.00 | 0.00 | 74 | 1013.0 |
| 20260509210556 | 14 | 337 | 1.6 | 0.0 | 0.00 | 0.00 | 0.00 | 74 | 1013.1 |
| 20260509210048 | 14 | 8 | 0.0 | 0.0 | 0.00 | 0.00 | 0.00 | 73 | 1013.1 |
| 20260509210020 | 13 | 8 | 0.0 | 0.0 | 0.00 | 0.00 | 0.00 | 73 | 1011.3 |
| 20260509205539 | 14 | 8 | 0.0 | 0.0 | 0.00 | 0.00 | 0.00 | 72 | 1013.1 |
| 20260509205034 | 14 | 8 | 1.6 | 0.0 | 0.00 | 0.00 | 0.00 | 72 | 1013.1 |
| 20260509204650 | 14 | 11 | 1.6 | 0.0 | 0.00 | 0.00 | 0.00 | 71 | 1011.3 |
| 20260509204543 | 14 | 11 | 1.6 | 0.0 | 0.00 | 0.00 | 0.00 | 72 | 1013.1 |
| 20260509204039 | 14 | 35 | 1.6 | 0.0 | 0.00 | 0.00 | 0.00 | 71 | 1013.1 |
| 20260509203529 | 15 | 45 | 3.2 | 0.0 | 0.00 | 0.00 | 0.00 | 71 | 1013.1 |
| 20260509203053 | 15 | 343 | 1.6 | 0.0 | 0.00 | 0.00 | 0.00 | 71 | 1013.1 |
| 20260509203010 | 14 | 343 | 1.6 | 0.0 | 0.00 | 0.00 | 0.00 | 71 | 1011.2 |
| 20260509202529 | 15 | 18 | 1.6 | 0.0 | 0.00 | 0.00 | 0.00 | 70 | 1013.0 |
| 20260509202038 | 15 | 9 | 1.6 | 0.0 | 0.00 | 0.00 | 0.00 | 70 | 1013.0 |
| 20260509201533 | 15 | 330 | 1.6 | 0.0 | 0.00 | 0.00 | 0.00 | 70 | 1011.2 |
| 20260509201517 | 15 | 330 | 1.6 | 0.0 | 0.00 | 0.00 | 0.00 | 70 | 1013.1 |
| 20260509201050 | 15 | 1 | 1.6 | 0.0 | 0.00 | 0.00 | 0.00 | 70 | 1013.1 |
| 20260509200543 | 15 | 343 | 1.6 | 0.0 | 0.00 | 0.00 | 0.00 | 70 | 1013.0 |
| 20260509200038 | 15 | 347 | 1.6 | 0.0 | 0.00 | 0.00 | 0.00 | 69 | 1013.0 |
| 20260509195541 | 15 | 7 | 1.6 | 0.0 | 0.00 | 0.00 | 0.00 | 68 | 1013.0 |
| 20260509195048 | 15 | 18 | 1.6 | 0.0 | 0.00 | 0.00 | 0.00 | 67 | 1013.0 |
| 20260509194542 | 15 | 9 | 3.2 | 0.0 | 0.00 | 0.00 | 0.00 | 67 | 1012.8 |
| 20260509194503 | 15 | 9 | 3.2 | 0.0 | 0.00 | 0.00 | 0.00 | 67 | 1011.0 |
| 20260509194037 | 15 | 357 | 4.8 | 0.0 | 0.00 | 0.00 | 0.00 | 66 | 1012.8 |
| 20260509193529 | 16 | 6 | 4.8 | 0.0 | 0.00 | 0.00 | 0.00 | 65 | 1012.7 |
| 20260509193113 | 16 | 352 | 6.4 | 0.0 | 0.00 | 0.00 | 0.00 | 64 | 1010.8 |
| 20260509193045 | 16 | 357 | 6.4 | 0.0 | 0.00 | 0.00 | 0.00 | 64 | 1012.7 |
| 20260509192542 | 16 | 352 | 6.4 | 0.0 | 0.00 | 0.00 | 0.00 | 63 | 1012.7 |
| 20260509192037 | 16 | 5 | 6.4 | 0.0 | 0.00 | 0.00 | 0.00 | 63 | 1012.7 |
| 20260509191612 | 16 | 8 | 6.4 | 0.0 | 0.00 | 0.00 | 0.00 | 62 | 1010.9 |
| 20260509191538 | 16 | 357 | 6.4 | 0.0 | 0.00 | 0.00 | 0.00 | 61 | 1012.7 |
| 20260509191033 | 17 | 10 | 4.8 | 0.0 | 0.00 | 0.00 | 0.00 | 61 | 1012.7 |
| 20260509190537 | 17 | 357 | 4.8 | 0.0 | 0.00 | 0.00 | 0.00 | 60 | 1012.7 |
| 20260509190058 | 17 | 20 | 4.8 | 0.0 | 0.00 | 0.00 | 0.00 | 59 | 1010.9 |
| 20260509190019 | 17 | 22 | 4.8 | 0.0 | 0.00 | 0.00 | 0.00 | 58 | 1012.7 |
| 20260509185536 | 17 | 18 | 4.8 | 0.0 | 0.00 | 0.00 | 0.00 | 57 | 1012.7 |
| 20260509185038 | 17 | 14 | 6.4 | 0.0 | 0.00 | 0.00 | 0.00 | 56 | 1012.9 |
| 20260509184608 | 17 | 319 | 6.4 | 0.0 | 0.00 | 0.00 | 0.00 | 54 | 1011.0 |
| 20260509184536 | 18 | 343 | 6.4 | 0.0 | 0.00 | 0.00 | 0.00 | 54 | 1012.8 |
| 20260509184039 | 18 | 352 | 6.4 | 0.0 | 0.00 | 0.00 | 0.00 | 53 | 1012.9 |
| 20260509183517 | 18 | 347 | 6.4 | 0.0 | 0.00 | 0.00 | 0.00 | 53 | 1013.0 |
| 20260509183035 | 18 | 352 | 6.4 | 0.0 | 0.00 | 0.00 | 0.00 | 51 | 1011.1 |
| 20260509183019 | 18 | 347 | 6.4 | 0.0 | 0.00 | 0.00 | 0.00 | 51 | 1013.0 |
| 20260509182533 | 18 | 329 | 6.4 | 0.0 | 0.00 | 0.00 | 0.00 | 50 | 1012.9 |
| 20260509182042 | 19 | 347 | 6.4 | 0.0 | 0.00 | 0.00 | 0.00 | 50 | 1012.9 |
| 20260509181538 | 19 | 329 | 6.4 | 0.0 | 0.00 | 0.00 | 0.00 | 49 | 1013.0 |
| 20260509181506 | 19 | 352 | 6.4 | 0.0 | 0.00 | 0.00 | 0.00 | 49 | 1011.1 |
| 20260509181026 | 20 | 317 | 3.2 | 0.0 | 0.00 | 0.00 | 0.00 | 51 | 1013.0 |
| 20260509180533 | 20 | 332 | 3.2 | 0.0 | 0.00 | 0.00 | 0.00 | 53 | 1013.0 |
| 20260509180156 | 20 | 317 | 3.2 | 0.0 | 0.00 | 0.00 | 0.00 | 56 | 1011.2 |
| 20260509180018 | 20 | 315 | 3.2 | 0.0 | 0.00 | 0.00 | 0.00 | 56 | 1013.0 |
| 20260509175529 | 20 | 307 | 4.8 | 0.0 | 0.00 | 0.00 | 0.00 | 49 | 1013.0 |
| 20260509175026 | 20 | 307 | 4.8 | 0.0 | 0.00 | 0.00 | 0.00 | 48 | 1012.9 |
| 20260509174621 | 20 | 296 | 6.4 | 0.0 | 0.00 | 0.00 | 0.00 | 47 | 1011.1 |
| 20260509174519 | 20 | 308 | 6.4 | 0.0 | 0.00 | 0.00 | 0.00 | 47 | 1013.0 |
| 20260509174017 | 20 | 291 | 6.4 | 0.0 | 0.00 | 0.00 | 0.00 | 46 | 1013.0 |
| 20260509173523 | 20 | 326 | 6.4 | 0.0 | 0.00 | 0.00 | 0.00 | 46 | 1013.0 |
| 20260509173132 | 20 | 317 | 8.0 | 0.0 | 0.00 | 0.00 | 0.00 | 43 | 1011.1 |
| 20260509173035 | 20 | 301 | 8.0 | 0.0 | 0.00 | 0.00 | 0.00 | 45 | 1013.0 |
| 20260509172532 | 20 | 303 | 8.0 | 0.0 | 0.00 | 0.00 | 0.00 | 44 | 1012.9 |
| 20260509172028 | 20 | 319 | 9.7 | 0.0 | 0.00 | 0.00 | 0.00 | 45 | 1013.0 |
| 20260509171550 | 21 | 317 | 11.3 | 0.0 | 0.00 | 0.00 | 0.00 | 44 | 1012.9 |
| 20260509171521 | 20 | 315 | 11.3 | 0.0 | 0.00 | 0.00 | 0.00 | 44 | 1011.1 |
| 20260509171021 | 21 | 293 | 9.7 | 0.0 | 0.00 | 0.00 | 0.00 | 45 | 1012.9 |
| 20260509170537 | 21 | 308 | 11.3 | 0.0 | 0.00 | 0.00 | 0.00 | 43 | 1012.9 |
| 20260509170113 | 21 | 309 | 11.3 | 0.0 | 0.00 | 0.00 | 0.00 | 43 | 1011.1 |
| 20260509170044 | 21 | 280 | 11.3 | 0.0 | 0.00 | 0.00 | 0.00 | 43 | 1012.9 |
| 20260509165545 | 21 | 274 | 9.7 | 0.0 | 0.00 | 0.00 | 0.00 | 44 | 1012.8 |
| 20260509165037 | 21 | 285 | 9.7 | 0.0 | 0.00 | 0.00 | 0.00 | 43 | 1012.8 |
| 20260509164625 | 21 | 301 | 9.7 | 0.0 | 0.00 | 0.00 | 0.00 | 44 | 1011.0 |
| 20260509164542 | 21 | 295 | 9.7 | 0.0 | 0.00 | 0.00 | 0.00 | 44 | 1012.9 |
| 20260509164038 | 21 | 312 | 9.7 | 0.0 | 0.00 | 0.00 | 0.00 | 45 | 1012.9 |
| 20260509163533 | 21 | 294 | 11.3 | 0.0 | 0.00 | 0.00 | 0.00 | 43 | 1013.0 |
| 20260509163127 | 21 | 288 | 11.3 | 0.0 | 0.00 | 0.00 | 0.00 | 44 | 1011.1 |
| 20260509163037 | 21 | 307 | 11.3 | 0.0 | 0.00 | 0.00 | 0.00 | 42 | 1013.0 |
| 20260509162530 | 21 | 286 | 11.3 | 0.0 | 0.00 | 0.00 | 0.00 | 44 | 1013.1 |
| 20260509162042 | 21 | 295 | 11.3 | 0.0 | 0.00 | 0.00 | 0.00 | 45 | 1013.2 |
| 20260509161613 | 21 | 284 | 11.3 | 0.0 | 0.00 | 0.00 | 0.00 | 42 | 1011.4 |
| 20260509161516 | 22 | 303 | 11.3 | 0.0 | 0.00 | 0.00 | 0.00 | 44 | 1013.2 |
| 20260509161043 | 22 | 320 | 11.3 | 0.0 | 0.00 | 0.00 | 0.00 | 44 | 1013.2 |
| 20260509160538 | 21 | 296 | 12.9 | 0.0 | 0.00 | 0.00 | 0.00 | 44 | 1013.3 |
| 20260509160104 | 22 | 301 | 12.9 | 0.0 | 0.00 | 0.00 | 0.00 | 42 | 1013.2 |
| 20260509160012 | 22 | 273 | 12.9 | 0.0 | 0.00 | 0.00 | 0.00 | 43 | 1011.4 |
| 20260509155534 | 22 | 18 | 11.3 | 0.0 | 0.00 | 0.00 | 0.00 | 43 | 1013.3 |
| 20260509155038 | 22 | 254 | 11.3 | 0.0 | 0.00 | 0.00 | 0.00 | 43 | 1013.4 |
| 20260509154618 | 22 | 301 | 9.7 | 0.0 | 0.00 | 0.00 | 0.00 | 44 | 1011.6 |
| 20260509154533 | 22 | 326 | 9.7 | 0.0 | 0.00 | 0.00 | 0.00 | 45 | 1013.4 |
| 20260509154043 | 22 | 316 | 9.7 | 0.0 | 0.00 | 0.00 | 0.00 | 46 | 1013.5 |
| 20260509153534 | 22 | 303 | 11.3 | 0.0 | 0.00 | 0.00 | 0.00 | 45 | 1013.4 |
| 20260509153106 | 22 | 320 | 9.7 | 0.0 | 0.00 | 0.00 | 0.00 | 46 | 1011.5 |
| 20260509153019 | 22 | 303 | 9.7 | 0.0 | 0.00 | 0.00 | 0.00 | 47 | 1013.4 |
| 20260509152552 | 22 | 308 | 8.0 | 0.0 | 0.00 | 0.00 | 0.00 | 45 | 1013.3 |
| 20260509152029 | 22 | 287 | 9.7 | 0.0 | 0.00 | 0.00 | 0.00 | 48 | 1013.4 |
| 20260509151611 | 22 | 259 | 9.7 | 0.0 | 0.00 | 0.00 | 0.00 | 49 | 1011.5 |
| 20260509151538 | 22 | 290 | 11.3 | 0.0 | 0.00 | 0.00 | 0.00 | 47 | 1013.3 |
| 20260509151033 | 22 | 324 | 11.3 | 0.0 | 0.00 | 0.00 | 0.00 | 46 | 1013.3 |
| 20260509150538 | 22 | 339 | 11.3 | 0.0 | 0.00 | 0.00 | 0.00 | 47 | 1013.4 |
| 20260509150106 | 22 | 293 | 11.3 | 0.0 | 0.00 | 0.00 | 0.00 | 46 | 1011.6 |
| 20260509150034 | 22 | 298 | 11.3 | 0.0 | 0.00 | 0.00 | 0.00 | 44 | 1013.4 |
| 20260509145528 | 22 | 323 | 12.9 | 0.0 | 0.00 | 0.00 | 0.00 | 48 | 1013.5 |
| 20260509145039 | 22 | 242 | 12.9 | 0.0 | 0.00 | 0.00 | 0.00 | 46 | 1013.4 |
| 20260509144534 | 22 | 294 | 12.9 | 0.0 | 0.00 | 0.00 | 0.00 | 46 | 1013.5 |
| 20260509144503 | 22 | 310 | 12.9 | 0.0 | 0.00 | 0.00 | 0.00 | 45 | 1011.7 |
| 20260509144023 | 22 | 282 | 12.9 | 0.0 | 0.00 | 0.00 | 0.00 | 45 | 1013.6 |
| 20260509143550 | 22 | 315 | 11.3 | 0.0 | 0.00 | 0.00 | 0.00 | 47 | 1013.6 |
| 20260509143103 | 22 | 317 | 11.3 | 0.0 | 0.00 | 0.00 | 0.00 | 45 | 1011.8 |
| 20260509143027 | 22 | 311 | 11.3 | 0.0 | 0.00 | 0.00 | 0.00 | 45 | 1013.7 |
| 20260509142538 | 22 | 296 | 11.3 | 0.0 | 0.00 | 0.00 | 0.00 | 49 | 1013.6 |
| 20260509142038 | 22 | 301 | 12.9 | 0.0 | 0.00 | 0.00 | 0.00 | 44 | 1013.7 |
| 20260509141635 | 21 | 275 | 12.9 | 0.0 | 0.00 | 0.00 | 0.00 | 46 | 1011.9 |
| 20260509141604 | 22 | 259 | 12.9 | 0.0 | 0.00 | 0.00 | 0.00 | 46 | 1013.8 |
| 20260509141038 | 22 | 290 | 11.3 | 0.0 | 0.00 | 0.00 | 0.00 | 47 | 1013.9 |
| 20260509140606 | 22 | 309 | 9.7 | 0.0 | 0.00 | 0.00 | 0.00 | 45 | 1013.8 |
| 20260509140104 | 23 | 325 | 11.3 | 0.0 | 0.00 | 0.00 | 0.00 | 45 | 1013.9 |
| 20260509140019 | 22 | 271 | 11.3 | 0.0 | 0.00 | 0.00 | 0.00 | 45 | 1012.1 |
| 20260509135600 | 22 | 274 | 11.3 | 0.0 | 0.00 | 0.00 | 0.00 | 46 | 1013.9 |
| 20260509135026 | 22 | 296 | 11.3 | 0.0 | 0.00 | 0.00 | 0.00 | 44 | 1014.0 |
| 20260509134608 | 22 | 309 | 11.3 | 0.0 | 0.00 | 0.00 | 0.00 | 46 | 1012.2 |
| 20260509134537 | 22 | 307 | 11.3 | 0.0 | 0.00 | 0.00 | 0.00 | 46 | 1014.0 |
| 20260509134018 | 22 | 327 | 11.3 | 0.0 | 0.00 | 0.00 | 0.00 | 49 | 1014.1 |
| 20260509133533 | 22 | 326 | 12.9 | 0.0 | 0.00 | 0.00 | 0.00 | 46 | 1014.1 |
| 20260509133059 | 22 | 265 | 11.3 | 0.0 | 0.00 | 0.00 | 0.00 | 47 | 1014.2 |
| 20260509132559 | 22 | 292 | 12.9 | 0.0 | 0.00 | 0.00 | 0.00 | 49 | 1014.3 |
| 20260509132034 | 22 | 307 | 12.9 | 0.0 | 0.00 | 0.00 | 0.00 | 49 | 1014.4 |
| 20260509131618 | 22 | 293 | 12.9 | 0.0 | 0.00 | 0.00 | 0.00 | 51 | 1012.6 |
| 20260509131538 | 22 | 305 | 12.9 | 0.0 | 0.00 | 0.00 | 0.00 | 51 | 1014.5 |
| 20260509131033 | 22 | 330 | 11.3 | 0.0 | 0.00 | 0.00 | 0.00 | 49 | 1014.5 |
| 20260509130527 | 22 | 258 | 12.9 | 0.0 | 0.00 | 0.00 | 0.00 | 52 | 1014.6 |
| 20260509130052 | 22 | 3 | 12.9 | 0.0 | 0.00 | 0.00 | 0.00 | 52 | 1012.7 |
| 20260509130034 | 22 | 270 | 12.9 | 0.0 | 0.00 | 0.00 | 0.00 | 52 | 1014.6 |
| 20260509125600 | 22 | 286 | 12.9 | 0.0 | 0.00 | 0.00 | 0.00 | 53 | 1014.6 |
| 20260509125043 | 22 | 282 | 12.9 | 0.0 | 0.00 | 0.00 | 0.00 | 54 | 1014.6 |
| 20260509124626 | 22 | 347 | 12.9 | 0.0 | 0.00 | 0.00 | 0.00 | 57 | 1012.9 |
| 20260509124544 | 22 | 315 | 12.9 | 0.0 | 0.00 | 0.00 | 0.00 | 56 | 1014.7 |
| 20260509124028 | 22 | 303 | 12.9 | 0.0 | 0.00 | 0.00 | 0.00 | 56 | 1014.7 |
| 20260509123523 | 22 | 284 | 11.3 | 0.0 | 0.00 | 0.00 | 0.00 | 55 | 1014.8 |
| 20260509123054 | 22 | 292 | 11.3 | 0.0 | 0.00 | 0.00 | 0.00 | 55 | 1014.9 |
| 20260509123017 | 21 | 316 | 11.3 | 0.0 | 0.00 | 0.00 | 0.00 | 55 | 1013.0 |
| 20260509122603 | 22 | 258 | 11.3 | 0.0 | 0.00 | 0.00 | 0.00 | 53 | 1014.9 |
| 20260509122104 | 22 | 317 | 11.3 | 0.0 | 0.00 | 0.00 | 0.00 | 56 | 1015.1 |
| 20260509121619 | 21 | 290 | 11.3 | 0.0 | 0.00 | 0.00 | 0.00 | 58 | 1013.3 |
| 20260509121519 | 22 | 310 | 11.3 | 0.0 | 0.00 | 0.00 | 0.00 | 57 | 1015.2 |
| 20260509121052 | 21 | 266 | 11.3 | 0.0 | 0.00 | 0.00 | 0.00 | 57 | 1015.2 |
| 20260509120534 | 21 | 278 | 12.9 | 0.0 | 0.00 | 0.00 | 0.00 | 57 | 1015.2 |
| 20260509120054 | 21 | 312 | 12.9 | 0.0 | 0.00 | 0.00 | 0.00 | 58 | 1015.3 |
| 20260509115527 | 21 | 320 | 11.3 | 0.0 | 0.00 | 0.00 | 0.00 | 59 | 1015.3 |
| 20260509115028 | 21 | 309 | 9.7 | 0.0 | 0.00 | 0.00 | 0.00 | 58 | 1015.4 |
| 20260509114604 | 21 | 266 | 11.3 | 0.0 | 0.00 | 0.00 | 0.00 | 60 | 1013.6 |
| 20260509114534 | 21 | 274 | 11.3 | 0.0 | 0.00 | 0.00 | 0.00 | 59 | 1015.5 |
| 20260509114035 | 21 | 274 | 11.3 | 0.0 | 0.00 | 0.00 | 0.00 | 61 | 1015.5 |
| 20260509113535 | 21 | 280 | 11.3 | 0.0 | 0.00 | 0.00 | 0.00 | 60 | 1015.6 |
| 20260509113056 | 21 | 278 | 11.3 | 0.0 | 0.00 | 0.00 | 0.00 | 62 | 1013.9 |
| 20260509113022 | 21 | 338 | 11.3 | 0.0 | 0.00 | 0.00 | 0.00 | 61 | 1015.7 |
| 20260509112554 | 21 | 332 | 11.3 | 0.0 | 0.00 | 0.00 | 0.00 | 60 | 1015.8 |
| 20260509112019 | 21 | 230 | 12.9 | 0.0 | 0.00 | 0.00 | 0.00 | 61 | 1015.9 |
| 20260509111557 | 20 | 311 | 12.9 | 0.0 | 0.00 | 0.00 | 0.00 | 61 | 1014.1 |
| 20260509111540 | 20 | 321 | 11.3 | 0.0 | 0.00 | 0.00 | 0.00 | 61 | 1015.9 |
| 20260509111023 | 20 | 260 | 11.3 | 0.0 | 0.00 | 0.00 | 0.00 | 62 | 1016.0 |
| 20260509110538 | 20 | 236 | 11.3 | 0.0 | 0.00 | 0.00 | 0.00 | 62 | 1016.1 |
| 20260509110031 | 20 | 315 | 11.3 | 0.0 | 0.00 | 0.00 | 0.00 | 61 | 1016.2 |
| 20260509110008 | 20 | 277 | 11.3 | 0.0 | 0.00 | 0.00 | 0.00 | 61 | 1014.4 |
| 20260509105541 | 20 | 296 | 12.9 | 0.0 | 0.00 | 0.00 | 0.00 | 61 | 1016.2 |
| 20260509105026 | 20 | 295 | 11.3 | 0.0 | 0.00 | 0.00 | 0.00 | 62 | 1016.4 |
| 20260509104552 | 20 | 296 | 9.7 | 0.0 | 0.00 | 0.00 | 0.00 | 63 | 1014.6 |
| 20260509104535 | 20 | 233 | 9.7 | 0.0 | 0.00 | 0.00 | 0.00 | 63 | 1016.4 |
| 20260509104059 | 20 | 262 | 11.3 | 0.0 | 0.00 | 0.00 | 0.00 | 66 | 1016.5 |
| 20260509103523 | 20 | 311 | 9.7 | 0.0 | 0.00 | 0.00 | 0.00 | 64 | 1016.6 |
| 20260509103148 | 19 | 265 | 9.7 | 0.0 | 0.00 | 0.00 | 0.00 | 62 | 1014.8 |
| 20260509103042 | 20 | 265 | 9.7 | 0.0 | 0.00 | 0.00 | 0.00 | 62 | 1016.7 |
| 20260509102542 | 20 | 298 | 11.3 | 0.0 | 0.00 | 0.00 | 0.00 | 65 | 1016.7 |
| 20260509102042 | 20 | 301 | 11.3 | 0.0 | 0.00 | 0.00 | 0.00 | 67 | 1016.8 |
| 20260509101606 | 19 | 302 | 9.7 | 0.0 | 0.00 | 0.00 | 0.00 | 65 | 1014.9 |
| 20260509101540 | 20 | 314 | 9.7 | 0.0 | 0.00 | 0.00 | 0.00 | 65 | 1016.7 |
| 20260509101024 | 20 | 294 | 8.0 | 0.0 | 0.00 | 0.00 | 0.00 | 67 | 1016.9 |
| 20260509100532 | 19 | 327 | 8.0 | 0.0 | 0.00 | 0.00 | 0.00 | 70 | 1016.9 |
| 20260509100049 | 19 | 325 | 9.7 | 0.0 | 0.00 | 0.00 | 0.00 | 68 | 1016.9 |
| 20260509100019 | 18 | 274 | 9.7 | 0.0 | 0.00 | 0.00 | 0.00 | 68 | 1015.1 |
| 20260509095614 | 19 | 265 | 8.0 | 0.0 | 0.00 | 0.00 | 0.00 | 68 | 1017.0 |
| 20260509095049 | 18 | 316 | 8.0 | 0.0 | 0.00 | 0.00 | 0.00 | 71 | 1017.1 |
| 20260509094540 | 18 | 267 | 6.4 | 0.0 | 0.00 | 0.00 | 0.00 | 73 | 1017.1 |
| 20260509094023 | 18 | 249 | 6.4 | 0.0 | 0.00 | 0.00 | 0.00 | 71 | 1017.2 |
| 20260509093537 | 18 | 21 | 6.4 | 0.0 | 0.00 | 0.00 | 0.00 | 73 | 1017.2 |
| 20260509093111 | 18 | 260 | 6.4 | 0.0 | 0.00 | 0.00 | 0.00 | 73 | 1015.5 |
| 20260509093038 | 18 | 264 | 6.4 | 0.0 | 0.00 | 0.00 | 0.00 | 72 | 1017.3 |
| 20260509092533 | 18 | 325 | 4.8 | 0.0 | 0.00 | 0.00 | 0.00 | 76 | 1017.4 |
| 20260509092027 | 17 | 261 | 4.8 | 0.0 | 0.00 | 0.00 | 0.00 | 76 | 1017.4 |
| 20260509091533 | 17 | 233 | 4.8 | 0.0 | 0.00 | 0.00 | 0.00 | 75 | 1017.3 |
| 20260509091503 | 17 | 309 | 4.8 | 0.0 | 0.00 | 0.00 | 0.00 | 75 | 1015.5 |
| 20260509091024 | 17 | 251 | 4.8 | 0.0 | 0.00 | 0.00 | 0.00 | 75 | 1017.4 |
| 20260509090529 | 17 | 290 | 3.2 | 0.0 | 0.00 | 0.00 | 0.00 | 75 | 1017.5 |
| 20260509090132 | 16 | 234 | 4.8 | 0.0 | 0.00 | 0.00 | 0.00 | 76 | 1015.8 |
| 20260509090019 | 17 | 206 | 4.8 | 0.0 | 0.00 | 0.00 | 0.00 | 75 | 1017.6 |
| 20260509085523 | 17 | 282 | 6.4 | 0.0 | 0.00 | 0.00 | 0.00 | 76 | 1017.6 |
| 20260509085029 | 16 | 297 | 6.4 | 0.0 | 0.00 | 0.00 | 0.00 | 77 | 1017.5 |
| 20260509084557 | 16 | 296 | 6.4 | 0.0 | 0.00 | 0.00 | 0.00 | 79 | 1015.7 |
| 20260509084516 | 16 | 286 | 6.4 | 0.0 | 0.00 | 0.00 | 0.00 | 80 | 1017.5 |
| 20260509084036 | 16 | 259 | 6.4 | 0.0 | 0.00 | 0.00 | 0.00 | 81 | 1017.6 |
| 20260509083541 | 15 | 302 | 6.4 | 0.0 | 0.00 | 0.00 | 0.00 | 81 | 1016.8 |
| 20260509083104 | 15 | 211 | 6.4 | 0.0 | 0.00 | 0.00 | 0.00 | 81 | 1015.8 |
| 20260509083016 | 15 | 232 | 6.4 | 0.0 | 0.00 | 0.00 | 0.00 | 81 | 1016.8 |
| 20260509082541 | 15 | 286 | 6.4 | 0.0 | 0.00 | 0.00 | 0.00 | 81 | 1016.8 |
| 20260509082034 | 15 | 284 | 4.8 | 0.0 | 0.00 | 0.00 | 0.00 | 83 | 1016.8 |
| 20260509081613 | 15 | 232 | 6.4 | 0.0 | 0.00 | 0.00 | 0.00 | 82 | 1016.0 |
| 20260509081538 | 15 | 300 | 6.4 | 0.0 | 0.00 | 0.00 | 0.00 | 82 | 1016.9 |
| 20260509081021 | 14 | 272 | 6.4 | 0.0 | 0.00 | 0.00 | 0.00 | 83 | 1016.8 |
| 20260509080548 | 14 | 308 | 6.4 | 0.0 | 0.00 | 0.00 | 0.00 | 84 | 1016.8 |
| 20260509080117 | 13 | 328 | 6.4 | 0.0 | 0.00 | 0.00 | 0.00 | 86 | 1016.0 |
| 20260509080029 | 13 | 284 | 6.4 | 0.0 | 0.00 | 0.00 | 0.00 | 87 | 1016.8 |
| 20260509075542 | 13 | 302 | 4.8 | 0.0 | 0.00 | 0.00 | 0.00 | 88 | 1017.0 |